Location: Newark
(47.3150°N, 5.1150°E)
Time: 20:38:35
(UTC+00:00)

O/OREOS (USA 219) - Pass Details

Date: 20 December 2019
Orbit: 621 x 646 km, 72.0° (Epoch: 22 May)

Event Time Altitude Azimuth Distance (km) Brightness Sun altitude
Exits shadow 06:04:02 19° 287° (WNW) 1,542 ? -12.6°
Maximum altitude 06:05:40 23° 258° (WSW) 1,376 ? -12.4°
Drops below altitude 10° 06:09:11 10° 206° (SSW) 2,017 ? -11.8°
Sets 06:11:48 0° 192° (SSW) 2,915 ? -11.4°
